This demonstration page uses our WeatherBlox Daily Observations layout. Learn more.

Left ArrowRight Arrow

Hourly Observations for January 8, 2016

Temp ( °F °C ) Dew Point ( °F °C ) Humidity (%) Winds ( mph kmh ) Pressure ( in mb ) Visibility ( mi km ) Precip ( " mm )
12:53 am 00:53 Clear 42 5.6 35 1.7 76 76 N 3 6 29.74 1007 10 16 0.00 0.00
1:53 am 01:53 Clear 39 3.9 34 1.1 82 82 ENE 5 7 29.73 1007 10 16 0.00 0.00
2:53 am 02:53 Mostly Clear 40 4.4 34 1.1 79 79 NNE 3 6 29.73 1007 10 16 0.00 0.00
3:53 am 03:53 Mostly Clear 39 3.9 35 1.7 86 86 WNW 5 7 29.72 1006 10 16 0.00 0.00
4:53 am 04:53 Clear 39 3.9 34 1.1 82 82 NW 5 7 29.71 1006 10 16 0.00 0.00
5:53 am 05:53 Clear 40 4.4 33 0.6 77 77 WSW 7 11 29.71 1006 10 16 0.00 0.00
6:53 am 06:53 Clear 40 4.4 34 1.1 79 79 WSW 7 11 29.73 1007 10 16 0.00 0.00
7:53 am 07:53 Clear 39 3.9 34 1.1 82 82 WSW 8 13 29.74 1007 10 16 0.00 0.00
8:53 am 08:53 Mostly Sunny 43 6.1 35 1.7 74 74 WSW 7 11 29.75 1008 10 16 0.00 0.00
9:53 am 09:53 Sunny 48 8.9 35 1.7 61 61 WSW 15 24 29.78 1008 10 16 0.00 0.00
10:53 am 10:53 Mostly Cloudy 49 9.4 35 1.7 59 59 SW 10 17 29.78 1009 10 16 0.00 0.00
11:53 am 11:53 Mostly Cloudy 52 11.1 34 1.1 50 50 WSW 18 30 29.74 1007 10 16 0.00 0.00
12:53 pm 12:53 Mostly Sunny 52 11.1 33 0.6 49 49 W 21 33 29.72 1007 10 16 0.00 0.00
1:53 pm 13:53 Mostly Sunny 51 10.6 34 1.1 52 52 W 23 37 29.70 1006 10 16 0.00 0.00
2:53 pm 14:53 Sunny 54 12.2 35 1.7 49 49 WSW 22 35 29.69 1005 10 16 0.00 0.00
3:53 pm 15:53 Mostly Sunny 51 10.6 31 -0.6 46 46 W 21 33 29.72 1007 10 16 0.00 0.00
4:53 pm 16:53 Sunny 51 10.6 31 -0.6 46 46 W 23 37 29.74 1007 10 16 0.00 0.00
5:53 pm 17:53 Sunny 49 9.4 29 -1.7 46 46 W 21 33 29.76 1008 10 16 0.00 0.00
6:53 pm 18:53 Clear 46 7.8 29 -1.7 51 51 W 13 20 29.79 1009 10 16 0.00 0.00
7:53 pm 19:53 Clear 44 6.7 30 -1.1 58 58 W 12 19 29.82 1010 10 16 0.00 0.00
8:53 pm 20:53 Clear 39 3.9 31 -0.6 73 73 NNW 5 7 29.86 1011 10 16 0.00 0.00
9:53 pm 21:53 Clear 35 1.7 30 -1.1 82 82 W 6 9 29.87 1012 10 16 0.00 0.00
10:53 pm 22:53 Partly Cloudy 34 1.1 30 -1.1 85 85 WSW 8 13 29.88 1012 10 16 0.00 0.00
11:53 pm 23:53 Mostly Clear 35 1.7 31 -0.6 85 85 W 7 11 29.89 1012 10 16 0.00 0.00

Powered by AerisWeather